Regional Weather Roundup
Issued by NWS

Home | Current Version | Previous Version | Text Only | Print | Product List | Glossary Off
Versions: 1 2 3 4 5 6 7 8 9 10 11 12 13 14 15 16 17 18 19 20 21 22 23 24 25 26 27 28 29 30 31 32 33 34 35 36 37 38 39 40 41 42 43 44 45 46 47 48 49 50

000
ASUS43 KMPX 271901
RWRMN
WEATHER ROUNDUP FOR MINNESOTA
NATIONAL WEATHER SERVICE TWIN CITIES/CHANHASSEN MN
100 PM CST TUE JAN 27 2015


NOTE: "FAIR" INDICATES FEW OR NO CLOUDS BELOW 12,000 FEET WITH NO
SIGNIFICANT WEATHER AND/OR OBSTRUCTIONS TO VISIBILITY. N/A MEANS
CURRENT SKY AND/OR WEATHER CONDITIONS ARE NOT AVAILABLE.

MNZ060>063-068>070-272000-
   Twin Cities Metro

CITY           SKY/WX    TMP DP  RH WIND       PRES   REMARKS
TWIN CITIES    CLOUDY    33  24  69 SE8       30.17S WCI  26
ST PAUL        CLOUDY    32  24  72 SE6       30.19F WCI  26
CRYSTAL        CLOUDY    34  26  72 E5        30.15F WCI  30
BLAINE         CLOUDY    34  27  75 SE7       30.17F WCI  28
LAKEVILLE      CLOUDY    32  27  80 E6        30.16F WCI  26
EDEN PRAIRIE   CLOUDY    34  26  72 SE9       30.15F WCI  27
SOUTH ST PAUL  CLOUDY    33  25  72 SE6       30.17F WCI  27
LAKE ELMO      CLOUDY    32  27  80 SE3       30.18F
$$
MNZ001>005-007-008-013>017-022>024-027-028-272000-
   Northwest Minnesota

CITY           SKY/WX    TMP DP  RH WIND       PRES   REMARKS
BEMIDJI        PTSUNNY   32  27  80 SE12      30.04F WCI  23
HALLOCK        CLOUDY    28  28 100 S12       29.98F FOG     WCI  18
ROSEAU         CLOUDY    28  23  80 S6        30.02S WCI  22
WARROAD        CLOUDY    27  23  86 S6        30.03S WCI  20
THIEF RVR FALL CLOUDY    28  28 100 S12       30.01F WCI  18
CROOKSTON      CLOUDY    30  30 100 S15       30.03F WCI  19
FOSSTON        MOSUNNY   30  27  86 S10       30.02F WCI  21
DETROIT LAKES  CLOUDY    30  30 100 S10       30.05F WCI  21
MOORHEAD       CLOUDY    30  30 100 S17       30.05F WCI  18
PARK RAPIDS    CLOUDY    32  26  78 S13       30.06F WCI  22
MAHNOMEN       CLOUDY    32  28  84 SE10      30.03F WCI  23
$$
MNZ006-009>011-018-025>026-272000-
   North Central Minnesota

CITY           SKY/WX    TMP DP  RH WIND       PRES   REMARKS
BAUDETTE       PTSUNNY   29  24  82 S6        30.02F WCI  23
FLAG ISLAND    CLOUDY    25  23  93 S14       30.02F WCI  13
INTL FALLS     CLOUDY    28  23  81 SE7       30.07F WCI  21
WASKISH        PTSUNNY   34  27  75 SE7       30.04F WCI  28
BIG FORK       PTSUNNY   30  25  80 SE6       30.08F WCI  24
LONGVILLE      PTSUNNY   34  25  69 S8        30.09F WCI  27
GRAND RAPIDS   CLOUDY    28  23  80 S9        30.10F WCI  20
CRANE LAKE     CLOUDY    25  23  93 S6        30.12F WCI  18
ORR            CLOUDY    27  21  80 S5        30.07F WCI  21
COOK           CLOUDY    27  23  86 S6        30.10F WCI  20
WALKER         MOCLDY    32  25  76 S7        30.08F WCI  25
$$
MNZ012-019>021-037-272000-
   Northeast Minnesota

CITY           SKY/WX    TMP DP  RH WIND       PRES   REMARKS
DULUTH         CLOUDY    28  21  75 SW8       30.12F WCI  20
ELY            CLOUDY    27  21  80 S7        30.10F WCI  19
HIBBING        CLOUDY    29  22  75 S6        30.11F WCI  23
EVELETH        CLOUDY    27  25  93 S7        30.13S WCI  19
DULUTH HARBOR  CLOUDY    30  25  80 CALM      30.19F
TWO HARBORS    CLOUDY    30  25  80 S6        30.13F WCI  24
SILVER BAY     CLOUDY    32  23  69 CALM      30.13F
GRAND MARAIS     N/A     30  22  72 SW5       30.18R WCI  25
G MARAIS ARPRT   N/A     25  18  74 SW3       30.11S
$$
MNZ029>031-032-039>041-046>048-054>057-064-272000-
   West Central Minnesota

CITY           SKY/WX    TMP DP  RH WIND       PRES   REMARKS
FERGUS FALLS   CLOUDY    30  30 100 S13       30.09F WCI  20
WHEATON        FOG       28  28 100 SE14      30.08F VSB 1/2 WCI  17
MORRIS         CLOUDY    30  30 100 SE13      30.07F FOG     WCI  20
ALEXANDRIA     CLOUDY    31  28  89 SE10      30.08F WCI  22
ELBOW LAKE     CLOUDY    30  29  98 SE15      30.06F WCI  19
WADENA         CLOUDY    30  27  86 SE7       30.08S WCI  23
GLENWOOD       CLOUDY    30  28  93 S10       30.09F WCI  21
APPLETON       CLOUDY    32  30  93 S9        30.09F WCI  24
BENSON         CLOUDY    32  28  86 S12       30.10F WCI  23
ORTONVILLE     FOG       30  28  93 S10       30.07F VSB 1   WCI  21
MADISON        CLOUDY    34  34 100 S9        30.08F FOG     WCI  26
WILLMAR        CLOUDY    34  28  80 SE10      30.12F WCI  26
$$
MNZ033>034-036-042>043-049>051-058-059-272000-
   Central Minnesota

CITY           SKY/WX    TMP DP  RH WIND       PRES   REMARKS
ST CLOUD       CLOUDY    33  26  75 S9        30.14S WCI  25
SAUK CENTRE    CLOUDY    31  28  90 SE12      30.11F WCI  22
PAYNESVILLE    CLOUDY    30  27  89 E7        30.12F WCI  23
AITKIN         CLOUDY    36  27  69 S7        30.11F
PINE RIVER     CLOUDY    30  27  86 SE9       30.13S WCI  22
BRAINERD       CLOUDY    32  26  78 S9        30.12F WCI  24
STAPLES        CLOUDY    30  27  86 S8        30.09F WCI  23
LONG PRAIRIE   CLOUDY    30  28  93 SE9       30.10F WCI  22
LITTLE FALLS   CLOUDY    32  27  80 SE7       30.12F WCI  26
LITCHFIELD     CLOUDY    34  30  86 SE5       30.14S WCI  30
BUFFALO        CLOUDY    34  26  73 SE3       30.16S
MAPLE LAKE     CLOUDY    35  29  79 CALM      30.15F
$$
MNZ037-044-045-052-053-272000-
   East Central Minnesota

CITY           SKY/WX    TMP DP  RH WIND       PRES   REMARKS
PRINCETON      CLOUDY    36  27  69 SE5       30.15F
MORA           CLOUDY    32  25  74 SE5       30.17F WCI  27
CAMBRIDGE      CLOUDY    34  23  64 SE3       30.15S
RUSH CITY      CLOUDY    31  24  75 CALM      30.16F
MOOSE LAKE     CLOUDY    30  25  80 CALM      30.14F
HINCKLEY       CLOUDY    32  27  80 SE3       30.16F
CLOQUET        CLOUDY    28  21  74 S6        30.14F WCI  22
MCGREGOR       CLOUDY    32  27  80 S6        30.12F WCI  26
$$
MNZ071>073-080-081-089-090-097-098-272000-
   Southwest Minnesota

CITY           SKY/WX    TMP DP  RH WIND       PRES   REMARKS
MONTEVIDEO     CLOUDY    30  30 100 S8        30.11F WCI  23
GRANITE FALLS  CLOUDY    31  30  95 SE10      30.13R WCI  22
CANBY          CLOUDY    32  32 100 SE8       30.08F WCI  25
MARSHALL       CLOUDY    32  28  86 S15       30.09F WCI  22
REDWOOD FALLS  CLOUDY    33  29  85 SE8       30.12S WCI  26
OLIVIA         CLOUDY    32  32 100 SE8       30.12S WCI  25
PIPESTONE      FOG       30  30 100 S10       30.05F VSB 1/2 WCI  21
WINDOM         SUNNY     37  32  81 SE10      30.08F
WORTHINGTON    MOSUNNY   36  30  80 S14       30.08F
JACKSON        MOSUNNY   36  32  87 S10       30.10F
TRACY          CLOUDY    33  33  99 S12       30.07F WCI  25
SLAYTON        CLOUDY    31  31 100 SE14      30.07F WCI  21
$$
MNZ065>067-074>077-082>085-091>093-272000-
   South Central Minnesota

CITY           SKY/WX    TMP DP  RH WIND       PRES   REMARKS
MANKATO        CLOUDY    36  27  69 SE7       30.15R
NEW ULM        CLOUDY    34  28  80 S6        30.13F WCI  29
ST JAMES       CLOUDY    36  30  80 SE10      30.14S
FAIRMONT       CLOUDY    36  25  64 SE10      30.11F
GLENCOE        CLOUDY    36  30  79 SE5       30.14S
FARIBAULT      CLOUDY    34  27  75 E6        30.17R WCI  29
OWATONNA       CLOUDY    34  27  75 E5        30.16R WCI  30
WASECA         CLOUDY    34  30  86 SE6       30.17R WCI  29
ALBERT LEA     CLOUDY    36  28  75 SE6       30.14S
$$
MNZ078>079-086>088-094>096-272000-
   Southeast Minnesota

CITY           SKY/WX    TMP DP  RH WIND       PRES   REMARKS
ROCHESTER      CLOUDY    30  25  81 E7        30.16F WCI  23
RED WING       CLOUDY    32  25  74 SE7       30.18S WCI  26
STANTON        CLOUDY    34  26  73 E7        30.15S WCI  28
DODGE CENTER   CLOUDY    32  28  86 E7        30.15S WCI  26
WINONA         CLOUDY    30  23  74 CALM      30.21F
AUSTIN         CLOUDY    32  27  80 SE5       30.14F WCI  27
PRESTON        CLOUDY    28  23  82 CALM      30.17S
$$
ABBREVIATIONS USED IN REMARKS
   TC - TEMPERATURES IN CELSIUS
  WCI - WIND CHILL INDEX
   HX - HEAT INDEX
  VSB - VISIBILITY
$$


USA.gov is the U.S. government's official web portal to all federal, state and local government web resources and services.